Regional Weather Roundup
Issued by NWS Albany, NY

Home | Current Version | Previous Version | Text Only | Print | Product List | Glossary On
Versions: 1 2 3 4 5 6 7 8 9 10 11 12 13 14 15 16 17 18 19 20 21 22 23 24 25 26 27 28 29 30 31 32 33 34 35 36 37 38 39 40 41 42 43 44 45 46 47 48 49 50
000
ASUS41 KALY 160410
RWRALY

NEW YORK STATE HOURLY WEATHER ROUNDUP
NATIONAL WEATHER SERVICE ALBANY NY
1200 AM EDT TUE SEP 16 2014

NOTE: "FAIR" INDICATES FEW OR NO CLOUDS BELOW 12,000 FEET WITH NO
SIGNIFICANT WEATHER AND/OR NO OBSTRUCTIONS TO VISIBILITY.

NYZ032-033-038>043-046>054-057>066-NYZ062>081-160500-
EAST


CITY           SKY/WX    TMP DP  RH WIND       PRES   REMARKS
ALBANY         CLOUDY    56  47  71 SE3       30.07F
GLENS FALLS    LGT RAIN  53  49  86 NE3       30.07F
POUGHKEEPSIE   CLOUDY    55  49  80 CALM      30.06F
NEWBURGH       CLEAR     55  50  82 CALM      30.08F
MONTGOMERY     CLOUDY    52  49  89 CALM      30.07F
WHITE PLAINS   PTCLDY    55  50  83 CALM      30.08F
ISLIP          MOCLDY    57  50  77 CALM      30.08S
NEW YORK CITY  MOCLDY    64  52  64 S7        30.08F
CENTRAL PARK   PTCLDY    62  51  67 SW5       30.10F
$$

NYZ005>009-017-018-044>046-055-056-160500-
CENTRAL


CITY           SKY/WX    TMP DP  RH WIND       PRES   REMARKS
FULTON         CLOUDY    55  53  93 CALM      30.04F
SYRACUSE       CLOUDY    58  55  90 SE5       30.03F
ROME           CLOUDY    55  52  89 E6        30.05F
ELMIRA         LGT RAIN  58  53  84 NE5       30.05S
BINGHAMTON     CLOUDY    56  47  71 S7        30.04F
MONTICELLO     CLOUDY    52  48  87 CALM      30.09F
$$

NYZ026>034-041>043-160500-
NORTH


CITY           SKY/WX    TMP DP  RH WIND       PRES   REMARKS
WATERTOWN      LGT RAIN  56  49  77 CALM      30.03F
FORT DRUM      NOT AVBL
MASSENA        LGT RAIN  53  51  93 S5        30.04F
SARANAC LAKE   LGT RAIN  48  47  96 W5        30.04F
PLATTSBURGH    CLOUDY    52  49  89 CALM      30.03F
$$

NYZ001>004-010>016-019>021-160500-
WEST


CITY           SKY/WX    TMP DP  RH WIND       PRES   REMARKS
NIAGARA FALLS  LGT RAIN  55  53  93 SW7       30.05S
BUFFALO        LGT RAIN  54  52  93 SW6       30.05F FOG
DUNKIRK        HVY RAIN  56  55  97 W5        30.08R FOG
JAMESTOWN      CLOUDY    52  52 100 N7        30.07F
WELLSVILLE     LGT RAIN  53  50  89 CALM      30.08F
ROCHESTER      LGT RAIN  56  53  90 S5        30.05F
PENN YAN       LGT RAIN  55  52  89 S5        30.06S
$$

             KEY
       WCI = WIND CHILL INDEX
       VSB = VISIBILITY
       HX  = HEAT INDEX
$$



USA.gov is the U.S. government's official web portal to all federal, state and local government web resources and services.